Temp
-8 -8 -8 -8 -8 -9 -9 -9 -9 -10 -10 -11 -11 -12 -12 -12 -12 -12 -12 -13 -13 -13 -11 -12 -12 -13 -12 -13 -13 -12 -12 -11 -10 -11 -11 -10 -9 -10 -9 -9 -8 -7 -6 -5 -5 -6 -6 -5 -5 -4 -4 -5 -5 -5
-7 -7 -7 -7 -7 -8 -8 -9 -10 -10 -11 -12 -12 -12 -12 -12 -13 -13 -13 -13 -14 -14 -12 -13 -13 -13 -13 -13 -12 -12 -12 -12 -12 -12 -11 -11 -11 -10 -10 -10 -7 -7 -6 -6 -5 -5 -4 -5 -5 -5 -5 -5 -6 -6
-7 -7 -8 -8 -8 -9 -9 -10 -10 -12 -12 -13 -13 -13 -13 -13 -13 -13 -13 -13 -14 -14 -13 -12 -12 -12 -12 -12 -13 -13 -12 -12 -12 -12 -12 -12 -11 -11 -10 -10 -9 -8 -7 -7 -6 -5 -6 -5 -5 -5 -5 -5 -6 -6
-8 -8 -9 -9 -10 -10 -10 -11 -11 -12 -12 -12 -14 -13 -13 -14 -13 -13 -13 -14 -14 -14 -14 -11 -12 -12 -12 -12 -12 -13 -13 -12 -12 -11 -12 -12 -12 -10 -10 -10 -9 -8 -8 -7 -7 -6 -5 -5 -5 -5 -6 -6 -5 -5
-8 -9 -9 -9 -9 -9 -10 -11 -12 -12 -12 -12 -13 -14 -14 -14 -14 -14 -14 -14 -14 -15 -14 -12 -12 -11 -11 -12 -12 -12 -12 -12 -12 -12 -12 -11 -11 -11 -10 -9 -8 -7 -7 -7 -7 -6 -6 -6 -6 -6 -6 -6 -6 -6
-10 -9 -8 -8 -9 -10 -11 -12 -12 -12 -12 -13 -13 -15 -14 -14 -14 -14 -14 -14 -14 -14 -14 -13 -12 -11 -12 -12 -12 -12 -12 -12 -12 -12 -11 -11 -10 -11 -10 -9 -6 -6 -6 -6 -6 -6 -6 -6 -6 -6 -6 -6 -7 -6
-10 -9 -9 -9 -10 -10 -12 -12 -12 -12 -13 -13 -13 -15 -14 -14 -14 -14 -14 -14 -14 -14 -14 -14 -13 -12 -12 -12 -12 -12 -12 -12 -12 -12 -11 -10 -10 -11 -10 -9 -5 -7 -7 -7 -7 -7 -6 -6 -6 -7 -7 -7 -7 -7
-10 -10 -10 -10 -10 -11 -11 -12 -12 -12 -12 -13 -14 -14 -15 -14 -14 -13 -14 -14 -14 -14 -14 -14 -13 -12 -12 -12 -11 -11 -11 -11 -11 -11 -11 -10 -10 -10 -10 -7 -7 -7 -7 -7 -7 -6 -6 -6 -6 -7 -7 -7 -7 -7
-10 -11 -10 -10 -11 -11 -11 -12 -12 -13 -13 -14 -14 -14 -14 -13 -13 -13 -14 -14 -14 -14 -14 -14 -13 -12 -12 -11 -12 -11 -11 -11 -11 -10 -10 -10 -10 -9 -7 -8 -8 -8 -7 -7 -7 -6 -7 -7 -7 -7 -8 -7 -7 -7
-10 -11 -11 -11 -11 -11 -11 -12 -12 -13 -13 -13 -13 -13 -13 -13 -14 -14 -13 -13 -13 -13 -14 -12 -11 -11 -11 -11 -12 -11 -10 -10 -10 -9 -9 -9 -8 -8 -8 -8 -7 -8 -7 -7 -7 -7 -7 -7 -7 -8 -8 -8 -8 -8
-10 -10 -10 -11 -11 -11 -12 -12 -12 -12 -13 -13 -13 -13 -13 -13 -13 -14 -13 -13 -13 -13 -12 -11 -11 -10 -11 -12 -12 -12 -9 -9 -9 -8 -8 -8 -8 -8 -8 -8 -8 -7 -7 -8 -8 -8 -8 -8 -8 -7 -7 -8 -8 -8
-10 -10 -10 -10 -11 -12 -12 -12 -12 -13 -13 -13 -13 -13 -13 -13 -13 -13 -13 -13 -13 -12 -12 -10 -10 -10 -10 -10 -10 -9 -9 -9 -9 -9 -8 -8 -8 -8 -8 -8 -8 -8 -8 -8 -9 -9 -8 -8 -7 -8 -7 -8 -7 -7
-10 -10 -10 -11 -11 -11 -12 -12 -12 -12 -13 -13 -13 -13 -13 -13 -13 -13 -13 -12 -12 -11 -11 -10 -10 -10 -10 -10 -10 -10 -9 -9 -9 -9 -8 -8 -9 -8 -8 -8 -8 -8 -8 -9 -8 -8 -9 -9 -8 -8 -8 -8 -8 -7
-10 -10 -11 -11 -11 -11 -11 -12 -12 -12 -12 -13 -12 -12 -12 -12 -12 -11 -11 -11 -11 -10 -10 -10 -10 -10 -10 -10 -10 -9 -9 -9 -9 -9 -8 -9 -9 -9 -8 -8 -8 -8 -8 -8 -8 -8 -8 -8 -8 -8 -8 -8 -8 -8
-11 -11 -11 -11 -11 -11 -11 -11 -12 -12 -12 -12 -12 -12 -11 -11 -11 -11 -11 -11 -11 -10 -10 -10 -10 -10 -10 -9 -10 -9 -10 -9 -9 -8 -9 -9 -9 -8 -8 -8 -9 -8 -8 -8 -8 -8 -8 -8 -8 -8 -8 -8 -8 -8
-11 -11 -11 -11 -11 -11 -12 -12 -12 -12 -12 -12 -11 -11 -10 -10 -10 -10 -10 -10 -11 -10 -10 -10 -10 -10 -9 -9 -10 -9 -9 -8 -9 -9 -10 -9 -9 -9 -9 -9 -9 -9 -9 -8 -8 -8 -8 -8 -8 -9 -9 -9 -9 -9
-10 -10 -11 -11 -12 -12 -12 -12 -12 -12 -11 -11 -10 -10 -10 -10 -10 -10 -10 -10 -10 -10 -10 -10 -10 -10 -10 -9 -9 -9 -9 -10 -10 -10 -10 -9 -9 -9 -9 -10 -10 -9 -9 -9 -9 -9 -9 -9 -9 -9 -9 -9 -9 -9
-10 -11 -11 -11 -11 -11 -11 -11 -13 -12 -11 -10 -11 -10 -10 -10 -10 -10 -10 -10 -10 -11 -11 -11 -11 -10 -10 -10 -10 -9 -10 -10 -10 -10 -10 -10 -10 -9 -10 -10 -10 -10 -10 -9 -9 -9 -9 -9 -9 -9 -9 -9 -9 -9
-11 -11 -11 -11 -11 -12 -12 -11 -12 -12 -11 -11 -10 -11 -11 -10 -10 -10 -10 -10 -11 -11 -11 -11 -11 -11 -11 -11 -11 -10 -10 -10 -10 -10 -10 -10 -11 -10 -10 -10 -10 -10 -10 -10 -10 -10 -9 -9 -9 -9 -10 -10 -10 -10
-11 -11 -11 -11 -12 -12 -12 -12 -12 -12 -11 -11 -11 -11 -11 -11 -11 -11 -11 -11 -11 -11 -12 -12 -11 -11 -11 -11 -11 -11 -11 -11 -11 -11 -11 -11 -11 -11 -11 -10 -10 -10 -10 -10 -10 -10 -10 -10 -9 -10 -11 -10 -10 -10
-11 -11 -11 -11 -12 -12 -12 -12 -12 -12 -12 -11 -11 -11 -11 -11 -11 -11 -12 -12 -12 -12 -11 -12 -12 -12 -12 -12 -12 -12 -12 -12 -12 -12 -11 -11 -11 -11 -11 -11 -11 -11 -11 -10 -10 -10 -10 -10 -10 -10 -11 -11 -11 -10
-11 -11 -11 -11 -12 -13 -13 -12 -12 -12 -12 -12 -12 -11 -11 -12 -12 -12 -12 -12 -12 -12 -12 -12 -13 -12 -12 -12 -13 -13 -13 -13 -13 -13 -13 -13 -13 -12 -12 -12 -12 -11 -11 -11 -11 -11 -11 -11 -10 -10 -11 -11 -11 -11
-11 -11 -11 -12 -12 -12 -12 -12 -12 -12 -12 -12 -12 -12 -13 -13 -13 -13 -13 -13 -13 -12 -12 -12 -13 -13 -13 -13 -14 -14 -14 -14 -14 -14 -14 -14 -14 -14 -14 -13 -13 -13 -13 -12 -12 -12 -11 -11 -11 -11 -11 -11 -12 -11
-11 -12 -12 -12 -12 -12 -12 -12 -12 -13 -13 -13 -13 -13 -13 -13 -13 -13 -13 -13 -13 -13 -13 -13 -13 -13 -14 -14 -15 -15 -14 -14 -15 -15 -15 -15 -14 -14 -14 -14 -14 -14 -14 -13 -13 -13 -12 -12 -12 -12 -12 -12 -12 -11
-12 -12 -12 -12 -12 -13 -13 -13 -14 -14 -14 -14 -14 -14 -14 -14 -14 -13 -13 -14 -14 -14 -13 -14 -15 -15 -15 -15 -15 -16 -16 -16 -15 -15 -15 -15 -15 -14 -14 -14 -14 -14 -14 -14 -14 -13 -13 -13 -13 -12 -12 -12 -12 -11
-12 -12 -12 -12 -13 -13 -14 -15 -15 -15 -15 -15 -15 -14 -14 -14 -14 -14 -14 -15 -15 -15 -15 -15 -15 -15 -16 -16 -16 -16 -16 -16 -16 -16 -16 -16 -16 -16 -16 -16 -15 -14 -14 -14 -14 -14 -14 -14 -14 -13 -13 -13 -12 -12
-12 -12 -12 -13 -13 -14 -15 -15 -15 -16 -16 -15 -15 -15 -15 -15 -14 -15 -16 -16 -16 -16 -16 -16 -16 -17 -17 -17 -17 -18 -18 -18 -18 -18 -17 -17 -17 -18 -18 -18 -18 -17 -16 -16 -15 -15 -15 -15 -14 -14 -14 -14 -13 -13
-12 -12 -13 -13 -13 -14 -14 -16 -16 -16 -15 -15 -15 -16 -16 -15 -16 -16 -17 -17 -17 -17 -17 -18 -18 -18 -18 -18 -18 -18 -18 -18 -18 -18 -18 -18 -18 -18 -18 -18 -18 -18 -17 -17 -16 -16 -15 -15 -15 -15 -14 -14 -14 -14
-12 -13 -13 -13 -14 -14 -16 -16 -16 -16 -16 -16 -16 -17 -17 -17 -17 -17 -18 -18 -18 -18 -18 -19 -19 -19 -19 -19 -19 -19 -19 -19 -19 -18 -18 -18 -18 -18 -19 -19 -18 -18 -18 -17 -17 -16 -16 -16 -16 -15 -15 -15 -15 -15
-12 -12 -13 -14 -15 -16 -16 -16 -16 -16 -16 -17 -17 -18 -18 -18 -18 -19 -19 -19 -19 -19 -19 -20 -20 -20 -20 -19 -19 -20 -20 -20 -20 -20 -20 -19 -19 -19 -19 -19 -18 -18 -18 -18 -17 -17 -16 -16 -16 -16 -15 -15 -15 -16
-12 -12 -14 -16 -16 -17 -17 -17 -17 -17 -17 -18 -18 -18 -18 -19 -19 -19 -20 -20 -20 -20 -20 -20 -20 -20 -20 -20 -20 -20 -20 -20 -20 -20 -20 -20 -20 -20 -20 -20 -19 -19 -18 -18 -18 -17 -17 -16 -16 -16 -16 -16 -16 -16
-13 -14 -15 -16 -17 -17 -17 -17 -17 -17 -18 -18 -18 -18 -18 -19 -20 -20 -21 -21 -21 -21 -21 -21 -21 -20 -20 -20 -20 -20 -20 -20 -20 -20 -20 -20 -20 -20 -20 -20 -20 -19 -19 -18 -18 -18 -17 -17 -17 -16 -16 -16 -16 -17
-14 -16 -16 -17 -17 -17 -18 -17 -18 -19 -19 -19 -19 -19 -19 -20 -21 -22 -22 -22 -21 -21 -21 -21 -21 -21 -21 -21 -21 -21 -21 -21 -21 -21 -21 -21 -20 -20 -20 -20 -20 -20 -19 -19 -19 -18 -18 -17 -17 -17 -17 -17 -17 -17
Height
2973 2971 2971 2970 2970 2969 2969 2970 2970 2971 2973 2975 2978 2980 2982 2986 2988 2989 2990 2990 2990 2987 2985 2987 2987 2985 2985 2985 2983 2984 2982 2980 2979 2975 2976 2970 2970 2969 2965 2961 2960 2957 2958 2955 2951 2952 2948 2950 2954 2955 2953 2954 2951 2954
2966 2966 2966 2964 2963 2962 2961 2961 2961 2963 2963 2966 2970 2973 2977 2980 2982 2982 2985 2986 2985 2982 2979 2980 2980 2980 2979 2978 2978 2979 2978 2979 2978 2978 2976 2972 2969 2966 2964 2958 2955 2953 2952 2951 2952 2949 2949 2948 2949 2950 2947 2949 2949 2951
2963 2961 2957 2953 2951 2948 2947 2946 2947 2949 2952 2957 2962 2967 2970 2974 2976 2978 2979 2979 2980 2977 2973 2971 2972 2974 2972 2971 2972 2970 2970 2973 2974 2976 2974 2971 2969 2966 2962 2957 2952 2947 2944 2944 2944 2942 2944 2945 2946 2947 2946 2948 2948 2947
2957 2952 2946 2940 2936 2933 2931 2932 2934 2937 2944 2948 2953 2960 2964 2968 2971 2973 2974 2974 2974 2973 2968 2965 2965 2964 2965 2963 2963 2962 2962 2966 2968 2969 2969 2968 2966 2962 2958 2956 2952 2948 2944 2940 2938 2939 2942 2941 2942 2942 2943 2942 2942 2941
2949 2941 2933 2926 2920 2915 2912 2914 2919 2927 2934 2940 2945 2953 2959 2963 2967 2969 2969 2970 2970 2971 2965 2960 2959 2960 2957 2955 2955 2957 2958 2959 2961 2963 2962 2961 2960 2960 2955 2950 2943 2942 2941 2937 2939 2941 2939 2939 2940 2939 2938 2939 2937 2937
2943 2933 2924 2916 2908 2899 2895 2900 2907 2918 2926 2936 2940 2948 2956 2961 2964 2964 2965 2966 2966 2966 2961 2954 2953 2951 2949 2947 2947 2949 2951 2954 2957 2957 2956 2955 2957 2958 2950 2941 2938 2940 2939 2938 2937 2936 2934 2933 2934 2933 2932 2931 2930 2930
2937 2928 2919 2911 2902 2892 2890 2896 2904 2914 2923 2933 2939 2947 2954 2958 2959 2961 2964 2965 2964 2963 2961 2954 2947 2947 2947 2945 2943 2944 2946 2948 2951 2951 2948 2949 2951 2953 2947 2937 2936 2936 2937 2935 2932 2931 2930 2929 2927 2927 2926 2925 2924 2924
2937 2931 2922 2912 2906 2902 2900 2903 2910 2918 2926 2933 2940 2948 2953 2956 2957 2958 2961 2962 2962 2960 2959 2953 2946 2944 2943 2940 2939 2941 2942 2943 2943 2944 2944 2945 2947 2946 2936 2933 2935 2933 2932 2930 2928 2927 2924 2920 2919 2920 2919 2919 2919 2919
2942 2938 2930 2923 2917 2913 2912 2914 2919 2924 2931 2938 2945 2949 2952 2954 2955 2959 2959 2958 2958 2959 2954 2949 2946 2943 2941 2939 2936 2936 2937 2936 2937 2935 2936 2941 2939 2937 2933 2934 2933 2930 2927 2924 2921 2919 2916 2913 2911 2912 2913 2914 2914 2914
2948 2946 2941 2936 2931 2929 2927 2928 2930 2935 2940 2944 2948 2951 2953 2955 2956 2956 2956 2955 2952 2951 2946 2941 2943 2939 2942 2939 2936 2933 2928 2928 2928 2929 2929 2931 2931 2932 2931 2930 2928 2926 2924 2920 2915 2914 2911 2909 2907 2908 2908 2909 2909 2909
2954 2952 2949 2946 2944 2942 2941 2942 2943 2945 2947 2950 2953 2954 2955 2955 2955 2955 2955 2953 2950 2947 2942 2939 2938 2937 2938 2935 2932 2931 2929 2929 2928 2930 2930 2931 2931 2929 2929 2928 2926 2923 2920 2915 2913 2910 2908 2905 2905 2905 2904 2904 2904 2904
2959 2957 2956 2954 2952 2951 2950 2950 2951 2952 2953 2954 2955 2955 2955 2955 2955 2954 2952 2951 2948 2944 2940 2938 2937 2935 2934 2933 2930 2931 2930 2930 2929 2930 2930 2930 2930 2929 2926 2926 2924 2922 2919 2915 2911 2909 2907 2905 2903 2902 2900 2899 2899 2898
2964 2962 2961 2959 2958 2957 2956 2956 2956 2956 2956 2956 2956 2956 2956 2956 2953 2951 2949 2947 2945 2943 2940 2939 2937 2937 2935 2933 2933 2932 2930 2930 2930 2929 2929 2929 2928 2927 2926 2924 2922 2920 2917 2914 2912 2908 2905 2904 2902 2901 2899 2898 2897 2896
2967 2966 2965 2964 2963 2961 2960 2960 2959 2959 2958 2958 2957 2955 2954 2952 2949 2946 2947 2944 2942 2941 2940 2939 2937 2937 2935 2935 2933 2932 2931 2930 2929 2928 2928 2926 2925 2924 2923 2920 2919 2917 2914 2912 2909 2907 2904 2902 2901 2899 2898 2898 2897 2896
2968 2968 2967 2966 2965 2964 2963 2962 2960 2959 2958 2958 2956 2954 2951 2952 2950 2949 2947 2945 2944 2942 2939 2939 2937 2936 2935 2934 2932 2931 2931 2929 2929 2928 2926 2925 2923 2920 2918 2916 2914 2913 2911 2909 2907 2905 2903 2901 2899 2897 2897 2896 2895 2895
2969 2968 2967 2966 2965 2963 2962 2961 2960 2958 2956 2955 2953 2953 2952 2951 2949 2947 2945 2943 2942 2941 2939 2938 2937 2935 2933 2932 2931 2929 2930 2929 2928 2924 2923 2922 2920 2917 2914 2912 2911 2910 2909 2907 2906 2904 2901 2900 2898 2896 2895 2894 2894 2894
2967 2966 2965 2964 2963 2962 2961 2959 2958 2956 2955 2953 2952 2950 2949 2947 2945 2944 2942 2940 2939 2938 2938 2937 2936 2934 2933 2931 2928 2928 2926 2924 2924 2923 2922 2920 2918 2915 2913 2911 2909 2908 2907 2905 2903 2901 2899 2897 2896 2895 2894 2893 2892 2892
2966 2965 2963 2962 2960 2959 2957 2956 2954 2952 2949 2948 2947 2947 2945 2943 2942 2941 2939 2938 2937 2935 2935 2935 2934 2932 2932 2930 2928 2926 2924 2922 2921 2920 2917 2915 2913 2912 2910 2909 2907 2905 2903 2901 2900 2898 2896 2894 2893 2892 2891 2891 2890 2890
2962 2962 2961 2959 2958 2957 2955 2952 2951 2948 2946 2944 2943 2942 2941 2939 2938 2936 2935 2934 2933 2932 2931 2930 2930 2927 2926 2925 2924 2922 2921 2920 2918 2917 2914 2912 2910 2908 2906 2904 2903 2901 2899 2897 2895 2894 2892 2890 2888 2887 2887 2887 2887 2887
2958 2957 2956 2956 2955 2954 2952 2951 2948 2945 2942 2941 2939 2939 2936 2935 2934 2932 2931 2930 2928 2927 2926 2925 2924 2923 2922 2920 2919 2917 2915 2914 2912 2911 2910 2908 2906 2904 2901 2899 2897 2895 2893 2892 2890 2888 2887 2886 2884 2882 2882 2882 2883 2884
2956 2954 2953 2952 2951 2950 2948 2946 2944 2942 2939 2937 2937 2935 2933 2931 2929 2928 2927 2925 2924 2922 2921 2919 2918 2918 2917 2915 2912 2911 2909 2908 2906 2904 2902 2901 2899 2897 2895 2892 2890 2888 2887 2885 2884 2882 2881 2880 2879 2877 2877 2877 2878 2878
2952 2950 2949 2947 2946 2944 2942 2941 2939 2937 2935 2934 2932 2931 2929 2928 2926 2924 2921 2920 2919 2917 2915 2914 2913 2912 2910 2909 2907 2905 2904 2902 2900 2898 2896 2894 2892 2891 2889 2886 2884 2882 2880 2878 2877 2875 2875 2874 2873 2872 2871 2871 2872 2872
2948 2947 2945 2943 2942 2940 2939 2936 2935 2934 2932 2929 2928 2926 2924 2923 2922 2920 2918 2917 2915 2912 2910 2908 2906 2906 2906 2904 2902 2901 2899 2898 2896 2894 2892 2890 2888 2885 2883 2881 2878 2876 2874 2872 2870 2868 2867 2866 2866 2865 2865 2864 2865 2866
2944 2942 2941 2940 2939 2937 2935 2934 2932 2930 2928 2926 2924 2921 2918 2916 2916 2915 2913 2911 2909 2908 2905 2903 2903 2902 2901 2899 2897 2895 2895 2893 2891 2889 2886 2883 2882 2880 2878 2875 2873 2870 2867 2865 2863 2862 2860 2859 2858 2858 2858 2858 2858 2859
2944 2942 2940 2938 2937 2935 2933 2930 2927 2926 2923 2921 2919 2916 2914 2913 2911 2910 2910 2905 2903 2903 2901 2899 2898 2897 2896 2895 2892 2890 2887 2885 2882 2881 2879 2875 2872 2870 2869 2867 2865 2862 2859 2857 2856 2854 2853 2852 2851 2850 2850 2850 2850 2850
2940 2939 2939 2936 2935 2933 2930 2926 2924 2922 2920 2918 2916 2914 2912 2910 2908 2906 2903 2900 2899 2898 2896 2895 2893 2891 2889 2886 2884 2881 2879 2875 2872 2870 2868 2864 2861 2856 2854 2852 2852 2852 2850 2849 2847 2846 2846 2845 2844 2843 2842 2841 2841 2841
2938 2937 2935 2933 2931 2929 2924 2922 2921 2919 2916 2914 2913 2912 2911 2908 2904 2901 2900 2898 2897 2894 2892 2889 2887 2884 2882 2880 2877 2873 2870 2867 2863 2860 2859 2857 2854 2851 2847 2844 2842 2840 2839 2839 2839 2838 2838 2837 2837 2836 2835 2834 2833 2833
2935 2932 2931 2929 2925 2923 2920 2918 2917 2916 2915 2912 2911 2910 2909 2907 2903 2899 2896 2894 2892 2889 2886 2883 2881 2878 2876 2873 2870 2867 2863 2859 2856 2853 2850 2848 2844 2842 2839 2837 2835 2833 2832 2831 2830 2830 2830 2830 2829 2829 2828 2828 2827 2827
2931 2928 2926 2923 2920 2918 2917 2916 2915 2913 2911 2909 2907 2904 2903 2899 2896 2893 2890 2888 2886 2883 2881 2879 2877 2874 2872 2868 2864 2859 2854 2850 2846 2843 2840 2838 2837 2836 2831 2829 2827 2826 2824 2823 2823 2822 2822 2822 2822 2823 2822 2822 2821 2821
2927 2923 2920 2918 2916 2915 2915 2913 2910 2908 2906 2903 2900 2898 2893 2890 2887 2885 2884 2883 2881 2879 2876 2874 2871 2869 2866 2863 2859 2856 2851 2846 2841 2835 2831 2828 2826 2824 2822 2820 2819 2817 2816 2814 2813 2814 2814 2815 2816 2816 2816 2817 2816 2816
2920 2917 2915 2913 2912 2910 2907 2905 2903 2899 2896 2893 2892 2891 2888 2885 2882 2881 2880 2878 2876 2874 2872 2870 2867 2864 2860 2856 2851 2848 2845 2841 2836 2832 2827 2822 2819 2816 2814 2812 2811 2809 2808 2807 2806 2806 2807 2808 2809 2809 2810 2811 2811 2811
2915 2913 2911 2907 2906 2904 2901 2897 2893 2890 2889 2888 2887 2886 2881 2879 2878 2878 2877 2875 2873 2871 2868 2865 2861 2857 2853 2849 2845 2840 2835 2831 2827 2823 2819 2816 2813 2811 2809 2807 2805 2803 2801 2800 2800 2800 2801 2802 2803 2804 2805 2805 2806 2807
2910 2908 2906 2904 2900 2896 2894 2891 2888 2887 2887 2886 2885 2883 2881 2880 2877 2876 2874 2872 2869 2865 2861 2857 2853 2848 2843 2838 2834 2829 2825 2821 2817 2814 2811 2809 2807 2805 2803 2802 2800 2798 2797 2796 2796 2796 2797 2798 2799 2799 2800 2801 2802 2803
Wind_Speed
13 16 19 21 23 25 26 27 27 26 25 24 22 20 20 20 19 20 18 16 18 23 28 23 25 28 28 29 28 23 25 10 13 14 23 4 5 15 21 22 24 29 20 17 10 9 11 20 13 7 12 15 16 5
15 17 21 24 28 30 32 32 33 34 31 27 25 23 22 21 20 21 18 17 18 23 27 26 27 27 26 24 30 34 32 29 29 20 19 18 21 20 18 19 24 11 14 22 11 4 5 5 4 6 7 7 13 14
16 21 25 28 31 33 34 36 36 35 34 32 28 25 23 21 21 21 18 16 20 24 26 26 21 19 19 18 16 29 31 30 27 21 21 27 21 12 25 30 30 31 20 22 22 27 3 4 4 6 7 11 14 18
25 28 30 32 34 36 36 36 33 31 32 33 30 26 23 21 19 18 17 16 17 21 28 26 16 17 17 17 22 25 27 22 25 25 24 27 30 18 27 34 39 25 20 14 8 10 14 13 13 16 13 17 19 19
30 31 33 33 32 33 35 38 37 29 26 30 29 26 23 19 16 16 19 17 17 19 27 30 23 20 18 21 28 22 25 24 23 21 24 27 27 30 34 29 23 9 11 14 15 11 12 14 14 15 18 14 14 14
26 27 23 24 26 28 28 25 28 26 23 25 26 24 20 16 14 17 17 14 13 16 24 32 26 28 14 16 18 22 22 24 22 24 27 29 27 19 19 26 18 15 16 14 21 21 21 22 22 23 23 22 22 22
28 29 24 23 23 15 2 12 16 22 21 19 23 22 18 15 15 14 13 7 9 18 20 19 19 16 21 18 15 16 15 21 24 27 31 28 27 26 31 40 17 14 9 14 18 21 22 22 21 19 22 21 21 18
27 33 28 25 19 15 17 16 18 18 18 17 23 19 14 11 11 11 8 13 15 17 19 14 25 26 20 17 10 12 14 18 24 26 29 29 26 25 25 19 12 13 18 22 25 25 29 33 32 19 20 16 19 20
28 30 33 33 29 22 23 22 21 20 15 23 18 14 10 8 6 3 9 13 17 19 21 22 27 25 11 20 22 11 15 23 23 30 33 25 24 20 20 11 13 21 26 29 28 27 31 23 18 15 12 16 16 17
28 31 32 33 35 34 32 29 27 26 24 20 14 11 5 2 6 9 12 13 15 23 28 31 23 27 22 22 27 14 9 17 7 4 6 11 15 14 16 20 19 14 19 30 33 22 16 12 8 8 15 16 15 17
25 25 26 27 28 29 28 26 23 20 17 12 8 4 4 2 4 4 5 5 6 8 12 10 9 12 12 17 23 9 6 2 2 2 1 2 1 2 5 8 14 18 22 11 5 12 16 13 13 11 14 17 19 20
20 22 21 21 20 19 19 18 17 13 10 6 2 4 3 2 3 4 5 6 7 8 9 7 8 11 15 14 7 2 3 2 2 1 3 1 3 11 4 9 9 10 15 14 12 13 13 13 12 10 12 13 13 13
14 14 14 14 14 14 12 11 10 9 6 3 3 4 3 4 6 5 5 9 8 12 17 14 14 9 7 3 4 4 2 2 4 2 1 2 11 13 11 9 8 11 13 14 15 16 14 10 8 8 8 7 7 6
8 9 10 10 9 8 7 6 5 5 4 6 7 6 5 5 7 8 11 14 19 13 10 8 5 5 5 4 4 4 3 4 2 2 1 6 13 16 18 14 14 15 15 12 11 12 12 10 9 7 7 6 5 7
5 5 5 6 7 7 7 7 6 5 6 7 6 4 5 10 12 12 12 10 10 12 7 5 6 6 6 5 4 3 2 3 3 4 3 15 21 25 20 15 14 14 12 12 11 11 10 9 9 9 10 10 9 11
5 4 5 6 7 7 7 7 7 10 13 8 4 5 9 13 12 12 11 8 7 9 9 7 5 5 4 4 3 3 2 3 3 12 16 19 20 24 20 18 10 9 10 11 11 11 11 11 10 9 9 6 5 5
8 7 7 8 8 10 10 12 12 12 6 6 9 14 15 16 15 12 12 11 10 10 7 5 4 3 4 5 4 4 1 6 12 18 18 20 22 19 19 13 6 8 9 11 12 13 13 12 10 9 9 8 6 6
10 10 10 11 11 12 13 13 10 12 16 17 18 15 15 15 14 12 11 11 12 10 10 10 10 12 7 7 8 9 15 22 21 22 22 22 19 17 14 15 15 14 13 15 17 16 15 14 13 10 10 9 8 7
13 12 11 11 12 13 14 18 12 12 18 15 15 14 17 17 15 13 13 13 12 11 10 11 9 9 10 13 16 18 21 21 25 23 19 17 14 18 17 17 18 18 17 18 17 16 16 15 14 13 11 11 9 8
12 13 13 13 14 14 13 10 15 19 19 19 16 16 18 17 17 15 14 15 16 13 13 11 14 17 19 22 24 25 22 24 24 21 19 19 20 21 22 23 21 20 19 18 19 17 17 16 16 14 15 13 11 9
11 11 11 13 15 16 18 16 17 15 17 18 16 17 17 17 19 18 20 20 17 15 17 17 19 19 19 17 14 21 27 25 22 23 23 21 20 22 22 21 22 22 23 21 20 19 19 18 17 14 15 13 14 13
15 14 13 15 16 15 18 18 17 17 20 21 19 15 16 18 19 19 19 15 18 18 16 17 16 20 21 24 27 25 22 19 19 19 18 19 19 18 19 20 21 21 21 21 21 20 19 19 18 17 17 16 16 17
15 14 16 15 13 8 9 11 14 15 14 17 21 19 18 17 19 18 16 14 15 17 19 15 14 16 17 18 14 12 17 19 18 16 15 16 16 18 20 21 22 22 21 19 20 20 19 19 20 19 18 16 19 19
17 9 7 4 5 7 13 13 15 19 21 18 19 23 26 20 20 22 21 21 21 18 17 20 21 19 18 15 15 20 22 23 23 23 24 24 24 23 24 23 23 24 25 23 21 20 18 18 18 20 20 19 19 21
8 5 5 7 7 8 17 21 18 20 17 15 20 23 20 17 17 16 13 9 13 14 12 12 13 17 17 16 18 22 26 30 33 34 34 35 36 36 35 33 29 27 26 25 24 22 19 17 17 19 20 22 23 22
4 4 4 5 9 16 21 19 14 17 19 21 14 14 17 17 16 8 12 17 19 18 18 18 20 22 26 30 32 34 36 36 35 33 30 31 30 30 29 28 29 25 24 23 23 24 22 19 19 18 19 21 23 23
5 7 10 16 22 26 22 18 15 18 16 12 10 13 16 8 6 4 8 9 15 25 30 33 34 36 37 35 30 27 25 25 26 28 26 26 25 23 18 23 23 23 23 20 20 22 23 21 19 18 18 18 19 20
8 16 20 26 25 18 14 11 9 7 6 9 11 15 9 13 20 25 24 28 32 37 36 31 29 28 24 23 25 26 27 28 28 26 24 23 24 24 24 24 24 24 25 25 22 21 21 20 20 18 17 17 16 16
17 24 24 20 16 12 8 9 9 12 17 19 20 25 26 30 35 37 39 38 35 26 21 23 20 18 20 22 24 26 28 29 29 28 25 23 21 19 23 24 23 25 28 29 27 25 21 19 19 18 16 15 13 13
21 21 19 17 13 8 7 11 17 22 25 30 30 24 19 24 29 27 23 19 18 19 18 16 17 20 21 22 22 22 25 27 29 30 30 27 24 23 22 21 21 20 20 21 21 20 18 17 17 16 15 13 13 12
20 19 15 14 15 15 15 18 21 21 21 24 20 18 20 23 23 19 16 17 15 14 15 17 19 22 25 27 30 31 30 30 32 32 30 27 24 22 22 22 21 21 20 18 17 16 15 15 14 14 12 13 13 12
18 15 16 16 18 22 24 25 24 18 9 7 9 11 17 15 15 13 13 12 15 17 21 24 26 28 31 34 36 37 38 38 36 32 26 24 21 19 18 18 18 18 17 15 14 13 13 12 12 12 11 12 12 11
16 15 18 20 23 24 25 25 16 11 11 15 4 7 9 11 7 10 14 19 24 28 30 32 35 38 39 39 39 38 36 33 28 24 22 21 19 17 15 15 15 14 12 10 8 8 9 10 11 10 10 11 11 10
Wind_Direction
294 295 293 289 284 281 277 272 268 264 262 257 250 246 248 251 253 255 256 266 274 282 284 281 276 277 275 268 274 277 317 302 307 330 324 297 313 328 317 297 300 287 275 264 258 235 236 240 274 279 274 268 277 294
317 308 300 293 286 280 275 271 268 264 256 248 244 245 250 251 251 256 259 264 271 271 283 283 282 286 286 280 274 270 277 286 292 301 305 317 320 310 313 308 320 287 288 269 256 267 265 308 327 9 12 315 312 287
317 309 302 295 286 278 272 267 263 257 253 244 240 243 245 247 247 253 260 266 273 277 286 281 290 293 286 280 272 266 265 269 281 285 289 302 300 295 300 302 304 308 321 309 282 274 284 339 350 329 298 274 264 279
324 320 312 301 292 284 273 264 258 252 247 252 229 233 233 237 242 249 260 272 275 285 288 288 291 281 299 279 258 256 270 261 269 273 273 278 281 297 298 297 298 306 303 308 311 313 314 303 298 283 277 267 268 277
338 328 316 310 299 286 268 253 247 243 234 251 231 214 221 224 230 246 267 273 274 274 286 292 291 296 297 281 265 268 260 263 265 265 268 268 277 289 299 295 287 314 312 306 332 317 305 309 309 299 292 279 283 291
350 338 329 326 318 298 271 248 231 222 225 231 221 199 208 214 228 255 266 269 273 283 294 295 291 318 297 270 258 247 248 248 249 258 262 269 276 280 275 280 309 308 306 307 320 303 287 286 291 294 292 294 294 284
7 7 4 2 2 8 121 189 188 191 191 215 207 178 195 215 240 253 257 265 283 284 297 302 305 315 313 306 266 260 233 241 253 252 253 263 277 275 274 271 317 322 323 324 285 288 292 297 294 297 290 285 288 279
22 22 26 36 35 50 80 114 139 159 159 201 166 173 192 223 240 251 248 265 278 281 288 285 292 310 323 318 273 240 245 251 249 254 253 267 273 269 268 288 311 329 304 286 285 289 291 293 286 271 282 277 273 277
35 33 38 49 57 78 99 113 128 128 146 146 148 161 180 215 236 282 261 266 270 268 269 271 285 302 305 314 320 305 278 259 254 254 258 267 259 249 274 308 292 284 291 300 302 301 306 300 289 262 273 262 269 264
50 54 57 61 67 73 81 91 103 116 126 132 136 149 167 219 233 261 274 280 271 262 263 279 288 285 293 294 296 295 261 225 223 250 228 230 259 310 291 269 279 288 300 298 295 303 293 289 278 261 259 261 248 252
57 58 60 63 68 73 78 85 93 103 109 118 126 151 199 274 274 277 273 269 276 276 282 309 309 294 282 282 291 285 353 5 307 137 234 245 215 305 287 287 310 320 334 314 280 319 341 320 281 275 265 262 265 261
66 64 60 61 66 70 74 80 83 85 87 70 43 344 319 288 273 268 265 257 255 264 281 322 302 291 293 298 303 76 297 288 223 204 235 234 310 342 308 316 318 344 353 348 355 331 323 339 340 316 293 284 283 274
50 57 60 59 58 57 61 68 76 74 53 42 342 317 284 249 245 241 256 255 252 274 299 327 324 311 315 301 303 307 305 6 330 297 269 82 42 16 3 2 352 344 341 342 333 340 330 317 334 347 351 354 356 349
43 37 37 40 40 42 46 49 45 29 4 317 297 274 259 238 264 279 334 337 332 321 331 324 324 310 318 303 287 280 320 320 297 270 265 46 6 349 347 308 311 328 330 326 325 327 332 316 295 299 309 333 344 350
15 17 18 29 35 25 14 2 345 323 335 304 287 268 315 346 348 336 334 328 336 345 339 322 305 285 276 261 255 268 250 255 266 297 348 349 342 333 323 320 302 321 330 333 332 327 331 325 320 308 292 313 285 312
342 324 316 319 325 329 331 330 325 317 319 302 253 290 319 324 326 322 319 316 311 312 314 318 299 288 271 262 250 262 219 266 260 338 350 344 343 346 339 333 309 322 329 333 335 332 328 325 319 315 317 313 279 304
323 317 317 317 309 308 306 302 299 298 283 276 313 317 314 318 322 322 325 322 304 295 300 302 279 262 280 266 247 215 298 15 350 341 330 324 329 328 334 323 299 310 318 329 331 331 329 322 319 311 309 309 304 293
301 305 299 301 305 307 306 306 305 291 289 304 302 310 312 317 313 308 303 312 319 297 274 262 264 270 276 271 274 278 293 310 322 324 325 325 323 319 315 322 306 296 295 299 305 315 314 311 306 298 289 287 290 291
299 289 284 292 297 300 305 306 302 286 305 308 316 318 318 315 309 305 299 298 298 290 283 271 262 256 260 266 281 286 291 301 307 312 316 322 309 304 312 308 300 297 295 297 305 301 305 304 300 287 274 274 275 275
297 289 282 282 285 289 298 286 294 289 292 310 307 309 306 310 309 310 313 311 298 283 272 259 270 273 276 281 282 285 295 300 304 305 304 307 303 299 297 298 299 299 295 293 298 294 293 297 304 279 270 267 264 255
310 303 287 281 280 282 278 277 273 285 293 294 302 308 302 308 311 311 309 307 298 291 292 279 277 283 281 296 301 303 301 304 305 304 304 302 295 293 293 294 294 295 293 294 291 289 286 287 294 281 266 254 261 257
313 302 289 286 286 281 275 277 271 276 281 292 296 301 304 309 312 305 301 294 302 308 303 287 279 276 284 291 298 301 304 307 309 307 306 306 306 301 300 302 299 295 294 295 293 288 284 279 279 279 268 252 245 255
309 301 293 286 280 268 273 282 282 293 290 290 301 300 295 299 296 289 294 298 301 287 283 242 254 279 294 301 298 282 288 304 308 301 303 306 311 312 308 304 302 303 302 299 293 290 286 277 274 272 272 263 240 248
314 296 284 262 253 267 285 292 299 301 302 297 293 286 297 299 284 283 285 275 270 260 230 254 282 291 288 284 279 280 289 295 294 295 298 299 301 304 310 313 310 302 296 295 296 290 288 282 274 267 264 262 252 246
302 287 269 264 272 288 301 309 303 303 308 313 308 309 311 306 296 290 280 249 241 243 249 249 266 280 278 281 286 291 296 299 300 299 299 298 300 300 298 297 296 297 295 291 285 285 284 283 280 268 260 259 259 255
282 265 268 279 301 312 315 303 307 302 300 307 307 312 307 311 305 267 237 243 256 266 278 288 289 291 309 314 313 308 305 304 305 305 307 308 308 305 302 294 283 273 273 279 281 279 281 283 286 287 279 265 259 257
263 274 278 292 304 312 307 304 295 296 303 303 299 301 316 303 273 259 252 290 307 314 317 317 319 321 319 318 315 310 308 306 304 305 308 305 302 305 295 294 293 280 273 270 272 275 276 277 281 287 289 285 271 263
274 288 300 309 313 316 312 316 327 329 317 285 290 309 297 285 297 300 303 307 311 314 318 319 322 324 321 316 316 316 312 309 307 305 303 299 292 284 283 277 279 276 277 280 280 276 275 275 277 282 287 288 282 266
293 305 312 315 319 326 338 340 314 274 276 281 286 300 301 293 291 293 295 298 302 304 309 314 315 315 320 324 325 326 325 322 319 314 309 301 291 275 275 280 286 281 274 274 278 277 272 269 270 275 282 287 284 272
306 314 311 315 320 336 293 269 268 275 282 287 293 301 282 292 300 297 294 297 300 302 304 304 311 317 320 325 330 334 336 337 335 329 322 316 309 300 296 291 286 285 287 284 277 267 262 260 262 267 273 277 276 270
316 314 315 315 311 316 312 306 314 311 301 290 288 283 282 289 287 282 286 294 294 291 299 305 311 315 319 320 322 322 324 326 328 327 323 317 309 303 300 299 297 294 294 292 282 264 253 251 253 257 264 268 266 264
318 319 320 326 318 317 320 330 339 348 2 357 332 310 265 248 253 272 280 289 294 299 304 309 311 313 313 314 314 313 315 317 318 317 314 314 307 301 302 304 304 301 297 291 281 259 247 247 251 257 260 260 258 255
322 324 322 320 323 332 339 343 350 357 339 332 308 307 310 305 288 305 315 317 319 319 319 317 314 312 310 309 309 310 312 313 313 310 311 312 308 303 301 307 315 312 303 289 274 256 248 248 249 251 255 255 251 244